This is the latest recevied weather packets stored in our database for station/object KC4GS-13. If no packets are shown the sender has not sent any weather packets the latest 10 day(s).
| Time | Temp. | Humidity | Pressure | Rain* | Wind** | Luminosity | Snow |
|---|---|---|---|---|---|---|---|
| 1787752711 | 26.67° C | 77% | 1019.5 hPa | 0 mm | - | 305 W/m² | - |
| 1787752407 | 26.67° C | 77% | 1019.5 hPa | 0 mm | - | 202 W/m² | - |
| 1787752106 | 26.11° C | 78% | 1019.5 hPa | 0 mm | - | 325 W/m² | - |
| 1787751801 | 25.56° C | 79% | 1019.7 hPa | 0 mm | - | 337 W/m² | - |
| 1787751496 | 25.56° C | 80% | 1019.8 hPa | 0 mm | - | 61 W/m² | - |
| 1787751191 | 25.56° C | 81% | 1019.8 hPa | 0 mm | - | 170 W/m² | - |
| 1787750886 | 25° C | 84% | 1019.7 hPa | 0 mm | - | 172 W/m² | - |
| 1787750576 | 24.44° C | 85% | 1019.7 hPa | 0 mm | - | 62 W/m² | - |
| 1787750270 | 23.89° C | 89% | 1019.6 hPa | 0 mm | - | 45 W/m² | - |
| 1787749965 | 23.33° C | 92% | 1019.8 hPa | 0 mm | - | 58 W/m² | - |
| 1787749662 | 23.33° C | 94% | 1019.9 hPa | 0 mm | - | 45 W/m² | - |
| 1787749358 | 22.78° C | 95% | 1019.7 hPa | 0 mm | - | 42 W/m² | - |
| 1787749052 | 22.78° C | 95% | 1019.7 hPa | 0 mm | - | 40 W/m² | - |
| 1787748747 | 22.78° C | 96% | 1019.5 hPa | 0 mm | - | 50 W/m² | - |
| 1787748441 | 22.78° C | 96% | 1019.7 hPa | 0 mm | - | 38 W/m² | - |
| 1787748138 | 22.78° C | 96% | 1019.7 hPa | 0 mm | - | 36 W/m² | - |
| 1787747832 | 22.22° C | 96% | 1019.6 hPa | 0 mm | - | 35 W/m² | - |
| 1787747527 | 22.22° C | 96% | 1019.8 hPa | 0 mm | - | 34 W/m² | - |
| 1787747221 | 21.67° C | 96% | 1019.7 hPa | 0 mm | - | 33 W/m² | - |
| 1787746917 | 21.67° C | 96% | 1019.7 hPa | 0 mm | - | 32 W/m² | - |
| 1787746617 | 21.11° C | 96% | 1019.7 hPa | 0 mm | - | 30 W/m² | - |
| 1787746316 | 20.56° C | 96% | 1019.6 hPa | 0 mm | - | 29 W/m² | - |
| 1787746010 | 20.56° C | 96% | 1019.7 hPa | 0 mm | - | 28 W/m² | - |
| 1787745710 | 20.56° C | 96% | 1019.8 hPa | 0 mm | - | 26 W/m² | - |
| 1787745408 | 20° C | 96% | 1019.6 hPa | 0 mm | - | 24 W/m² | - |
* Rain latest hour (hover to see other rain measurements)
** Current wind speed in m/s (hover to see current wind gust speed)